Date String (YYYY-MM-DD hh:mm:ss) UTC,Instrument flags,absolute air pressure of the measurement (hPa),sample flow rate (lpm),inlet stack bypass flow (lpm),air temperature of the measurement (°C),ambient temperature measured by the external sensor (°C),aerosol sample conditioner tube jacket temperature (°C),OPC LED temperature (°C),internal box temperature (°C),relative humidity of the measurement (%),span deviation,mass concentration of particles derived from Lorenz-Mie calculation of OPC scattering (μg/m³),mass concentration of particles derived from Lorenz-Mie calculation of OPC scattering (μg/m³),mass concentration of particles derived from Lorenz-Mie calculation of OPC scattering (μg/m³)
DateTimeUTC,F1_M11,P_M11,Q1_M11,Q2_M11,T1_M11,T2_M11,T3_M11,T4_M11,T5_M11,U1_M11,ZSPAN_M11,X0_M11,X2_M11,X1_M11
2024-04-04 01:00:00,SystemResetWarning,0827.7,5.00,000.00,025.6,025.1,000.0,033.8,027.5,011.1,0000.0,0005.67,0002.45,0001.65
2024-04-04 01:01:00,SystemResetWarning,0827.7,4.99,000.00,025.6,025.2,000.0,033.8,027.5,011.1,0000.0,0006.25,0002.52,0001.64
2024-04-04 01:02:00,SystemResetWarning,0827.8,4.99,000.00,025.7,025.2,000.0,033.9,027.6,011.4,0000.0,0007.87,0002.55,0001.64
2024-04-04 01:03:00,SystemResetWarning,0827.8,5.01,000.00,025.7,025.1,000.0,033.9,027.5,011.3,0000.0,0008.62,0002.60,0001.64
2024-04-04 01:04:00,SystemResetWarning,0827.7,4.99,000.00,025.4,023.1,000.0,034.0,026.2,011.2,0000.0,0009.56,0002.62,0001.65
2024-04-04 01:05:00,SystemResetWarning,0827.7,5.02,000.00,025.0,022.0,000.0,033.9,025.6,011.4,0000.0,0010.74,0002.59,0001.64
2024-04-04 01:06:00,SystemResetWarning,0827.7,4.99,000.00,024.8,022.2,000.0,033.8,025.7,011.6,0000.0,0011.48,0002.62,0001.65
2024-04-04 01:07:00,SystemResetWarning,0827.7,5.00,000.00,024.8,022.6,000.0,033.7,026.1,011.7,0000.0,0012.06,0002.63,0001.65
2024-04-04 01:08:00,SystemResetWarning,0827.8,4.99,000.00,024.8,023.0,000.0,033.6,026.3,011.8,0000.0,0012.29,0002.66,0001.64
2024-04-04 01:09:00,SystemResetWarning,0827.8,4.99,000.00,024.8,023.4,000.0,033.5,026.4,011.9,0000.0,0012.41,0002.70,0001.65
2024-04-04 01:10:00,SystemResetWarning,0827.8,5.01,000.00,024.9,023.6,000.0,033.5,026.6,011.8,0000.0,0012.20,0002.69,0001.65
2024-04-04 01:11:00,SystemResetWarning,0827.8,5.00,000.00,024.9,023.9,000.0,033.5,026.7,011.8,0000.0,0012.09,0002.72,0001.66
2024-04-04 01:12:00,SystemResetWarning,0827.8,4.99,000.00,025.0,024.0,000.0,033.5,026.8,011.7,0000.0,0011.63,0002.59,0001.66
2024-04-04 01:13:00,SystemResetWarning,0827.8,5.00,000.00,025.0,024.2,000.0,033.5,026.8,011.7,0000.0,0010.67,0002.54,0001.66
2024-04-04 01:14:00,SystemResetWarning,0827.8,5.00,000.00,025.1,024.3,000.0,033.5,026.9,011.6,0000.0,0010.32,0002.46,0001.64
2024-04-04 01:15:00,SystemResetWarning,0827.7,4.99,000.00,025.1,024.4,000.0,033.5,027.0,011.7,0000.0,0009.65,0002.46,0001.63
2024-04-04 01:16:00,SystemResetWarning,0827.8,5.00,000.00,025.2,024.5,000.0,033.5,027.0,011.6,0000.0,0008.37,0002.44,0001.62
2024-04-04 01:17:00,SystemResetWarning,0827.7,4.99,000.00,025.2,024.6,000.0,033.5,027.1,011.5,0000.0,0007.53,0002.41,0001.61
2024-04-04 01:18:00,SystemResetWarning,0827.9,5.00,000.00,025.2,024.7,000.0,033.5,027.2,011.3,0000.0,0006.70,0002.35,0001.62
2024-04-04 01:19:00,SystemResetWarning,0827.7,5.00,000.00,025.3,024.7,000.0,033.6,027.2,011.5,0000.0,0005.98,0002.28,0001.63
2024-04-04 01:20:00,SystemResetWarning,0827.8,5.00,000.00,025.3,024.8,000.0,033.6,027.2,011.5,0000.0,0005.81,0002.26,0001.62
2024-04-04 01:21:00,SystemResetWarning,0827.8,5.01,000.00,025.4,024.8,000.0,033.6,027.3,011.6,0000.0,0005.78,0002.25,0001.63
2024-04-04 01:22:00,SystemResetWarning,0827.8,5.00,000.00,025.4,024.9,000.0,033.7,027.3,011.5,0000.0,0005.61,0002.23,0001.63
2024-04-04 01:23:00,SystemResetWarning,0827.7,5.00,000.00,025.4,024.9,000.0,033.7,027.3,011.6,0000.0,0005.71,0002.25,0001.63
2024-04-04 01:24:00,SystemResetWarning,0827.8,4.99,000.00,025.5,025.0,000.0,033.7,027.4,011.5,0000.0,0005.60,0002.23,0001.62
2024-04-04 01:25:00,SystemResetWarning,0827.8,5.00,000.00,025.5,025.0,000.0,033.8,027.4,011.5,0000.0,0005.56,0002.25,0001.63
2024-04-04 01:26:00,SystemResetWarning,0827.8,5.01,000.00,025.5,025.0,000.0,033.8,027.4,011.4,0000.0,0005.66,0002.29,0001.64
2024-04-04 01:27:00,SystemResetWarning,0827.7,5.01,000.00,025.6,025.1,000.0,033.8,027.5,011.2,0000.0,0005.67,0002.31,0001.65
2024-04-04 01:28:00,SystemResetWarning,0827.7,4.99,000.00,025.6,025.1,000.0,033.8,027.5,011.3,0000.0,0007.00,0002.32,0001.64
2024-04-04 01:29:00,SystemResetWarning,0827.7,4.99,000.00,025.6,025.1,000.0,033.9,027.5,011.4,0000.0,0007.39,0002.31,0001.64
2024-04-04 01:30:00,SystemResetWarning,0827.8,4.99,000.00,025.7,025.2,000.0,033.9,027.6,011.3,0000.0,0007.20,0002.30,0001.64
2024-04-04 01:31:00,SystemResetWarning,0827.8,4.99,000.00,025.7,025.2,000.0,033.9,027.6,011.4,0000.0,0007.18,0002.28,0001.65
2024-04-04 01:32:00,SystemResetWarning,0827.8,5.00,000.00,025.7,025.2,000.0,034.0,027.6,011.2,0000.0,0007.49,0002.33,0001.66
2024-04-04 01:33:00,SystemResetWarning,0827.8,5.01,000.00,025.7,025.2,000.0,034.0,027.6,011.1,0000.0,0007.70,0002.32,0001.65
2024-04-04 01:34:00,SystemResetWarning,0827.8,5.01,000.00,025.8,025.2,000.0,034.0,027.6,011.4,0000.0,0007.74,0002.36,0001.66
2024-04-04 01:35:00,SystemResetWarning,0827.8,5.00,000.00,025.8,025.2,000.0,034.0,027.7,011.3,0000.0,0007.78,0002.40,0001.68
2024-04-04 01:36:00,SystemResetWarning,0827.8,4.99,000.00,025.8,025.3,000.0,034.1,027.7,011.3,0000.0,0007.21,0002.41,0001.69
2024-04-04 01:37:00,SystemResetWarning,0827.7,4.99,000.00,025.8,024.4,000.0,034.1,027.2,011.3,0000.0,0007.24,0002.39,0001.69
2024-04-04 01:38:00,SystemResetWarning,0827.7,5.01,000.00,025.3,022.1,000.0,034.1,026.0,011.4,0000.0,0007.49,0002.43,0001.70
2024-04-04 01:39:00,SystemResetWarning,0827.7,5.01,000.00,025.0,021.8,000.0,034.1,025.6,011.5,0000.0,0007.31,0002.42,0001.70
2024-04-04 01:40:00,SystemResetWarning,0827.7,4.99,000.00,024.9,022.1,000.0,033.9,025.8,011.7,0000.0,0005.73,0002.41,0001.70
2024-04-04 01:41:00,SystemResetWarning,0827.7,4.99,000.00,024.8,022.5,000.0,033.8,026.1,012.0,0000.0,0005.74,0002.43,0001.71
2024-04-04 01:42:00,SystemResetWarning,0827.7,5.01,000.00,024.8,022.9,000.0,033.7,026.3,011.9,0000.0,0006.30,0002.50,0001.71
2024-04-04 01:43:00,SystemResetWarning,0827.7,5.00,000.00,024.8,023.3,000.0,033.6,026.5,012.0,0000.0,0007.20,0002.45,0001.70
2024-04-04 01:44:00,SystemResetWarning,0827.7,4.99,000.00,024.9,023.5,000.0,033.6,026.6,012.0,0000.0,0006.53,0002.42,0001.70
2024-04-04 01:45:00,SystemResetWarning,0827.7,4.99,000.00,024.9,023.8,000.0,033.6,026.7,011.9,0000.0,0006.41,0002.39,0001.69
2024-04-04 01:46:00,SystemResetWarning,0827.7,5.00,000.00,024.9,023.9,000.0,033.6,026.7,011.7,0000.0,0006.40,0002.38,0001.68
2024-04-04 01:47:00,SystemResetWarning,0827.7,5.00,000.00,025.0,024.1,000.0,033.5,026.8,011.7,0000.0,0006.67,0002.34,0001.67
2024-04-04 01:48:00,SystemResetWarning,0827.7,5.00,000.00,025.0,024.2,000.0,033.5,026.8,011.7,0000.0,0006.79,0002.36,0001.66
2024-04-04 01:49:00,SystemResetWarning,0827.7,5.00,000.00,025.1,024.3,000.0,033.5,026.9,011.8,0000.0,0007.88,0002.28,0001.66
2024-04-04 01:50:00,SystemResetWarning,0827.8,5.00,000.00,025.1,024.4,000.0,033.5,027.0,011.7,0000.0,0009.00,0002.27,0001.65
2024-04-04 01:51:00,SystemResetWarning,0827.8,5.01,000.00,025.1,024.4,000.0,033.6,027.0,011.5,0000.0,0009.60,0002.32,0001.66
2024-04-04 01:52:00,SystemResetWarning,0827.8,5.00,000.00,025.2,024.5,000.0,033.6,027.1,011.3,0000.0,0009.91,0002.31,0001.64
2024-04-04 01:53:00,SystemResetWarning,0827.7,5.00,000.00,025.2,024.6,000.0,033.6,027.1,011.2,0000.0,0009.61,0002.25,0001.63
2024-04-04 01:54:00,SystemResetWarning,0827.8,5.00,000.00,025.2,024.6,000.0,033.6,027.1,011.3,0000.0,0008.93,0002.21,0001.61
2024-04-04 01:55:00,SystemResetWarning,0827.8,5.00,000.00,025.3,024.7,000.0,033.6,027.2,011.3,0000.0,0009.02,0002.24,0001.61
2024-04-04 01:56:00,SystemResetWarning,0827.8,5.00,000.00,025.3,024.7,000.0,033.6,027.2,011.3,0000.0,0009.11,0002.28,0001.62
2024-04-04 01:57:00,SystemResetWarning,0827.8,4.99,000.00,025.3,024.7,000.0,033.7,027.2,011.2,0000.0,0009.21,0002.29,0001.61
2024-04-04 01:58:00,SystemResetWarning,0827.9,5.00,000.00,025.3,024.8,000.0,033.7,027.2,011.3,0000.0,0009.11,0002.35,0001.61
2024-04-04 01:59:00,SystemResetWarning,0827.8,5.00,000.00,025.4,024.8,000.0,033.7,027.3,011.2,0000.0,0008.99,0002.37,0001.61
